CZ-6A DEB, 55222

Orbit data source: Space-Track

CZ-6A DEB, 55222 is space debris in SSO originally from a launch on Fri, 11 Nov 2022 UTC launched from the Taiyaun Space Center, China (TSC). Debris objects in space refer to the collection of defunct objects orbiting the Earth. Examples of debris include non-operational satellites, rocket bodies, and fragments generated from explosions, collisions, or faulty payload assembly.

Loading next visibility...
Identifier
55222, 2022-151WP
Orbit
SSO
Country
Flag of CNCN / PRC
Related business
Manufacturer
SAST
Mission
Spacecraft
Bus & Motor
Unknown
Mass
Unknown
Launch date (UTC)
2022-11-11 (4 years ago)
Launch vehicle
Unknown
Launch site
Taiyaun Space Center, China (TSC)
Object type
Payload
Rocket body
Debris
Shape & HBR
Unknown shape, 0.1 m
Radar Cross Section
Small (<0.1 m²)

Expand to show TLE details & history
Last TLE update: 10 hours ago

TLE from 10 hours ago
0 CZ-6A DEB
1 55222U 22151WP  26237.13084052  .00011841  00000-0  17607-2 0  9998
2 55222  98.6268 307.0110 0066599  71.2228 289.6189 14.73614060194982
Epoch: 2026-08-25T03:08Z
TLE epoch observation values (Epoch: 2026-08-25T03:08:24.620Z)
Latitude
0.00001°
Longitude
-73.49419°
Altitude
637.104 km
Speed
7.548 km/s
True Right ascension
20h 28m 02s
True Declination
0° 00' 00"
Sunlit
Object was in full shadow at epoch
Visualization orbit readout
Latitude
Unknown
Longitude
Unknown
Altitude
Unknown
Speed
Unknown
Apparent Right ascension
Unknown
Apparent Declination
Unknown
Sunlit
N/A
Visualization observer readout
Local Sidereal Time
04:35:53
Azimuth
Unknown
Elevation
Unknown
Doppler factor
Unknown
Orbital elements
Apogee altitude
693.422 km
Perigee altitude
599.853 km
Semi-major axis
7,024.774 km
Eccentricity
0.00666
Inclination
98.6268°
RAAN
307.011°
Arg. of periapsis
71.2228°
True anomaly
288.89804°
Mean anomaly
289.6189°
Eccentric anomaly
289.25867°
Mean motion
3.68633 °/min
Orbital period
97.66 mins
BSTAR
0.0017607
Loading maneuver chart data...
Computing Atmospheric mass density...
Loading historical data...
Loading historical data...
Loading historical data...
Loading historical data...
Loading historical data...
Loading historical data...
Loading historical data...

Documentation

Showing up to 5 results
|